Location: Roanoke
(37.2710°N, 79.9420°W)
Time: 00:29:58
(UTC-04:00)

Cosmos 1441 Rocket - Visible Passes

Search period start: 26 June 2016 00:00
Search period end: 06 July 2016 00:00
Orbit: 499 x 546 km, 81.1° (Epoch: 25 June)

Date Brightness Start Highest point End Pass type
(mag) Time Alt. Az. Time Alt. Az. Time Alt. Az.
26 Jun 3.4 21:17:39 10° S 21:21:18 47° E 21:24:56 10° NNE visible
27 Jun 6.5 22:43:53 10° W 22:44:39 10° WNW 22:45:26 10° WNW visible
28 Jun 6.3 22:30:14 10° W 22:31:44 12° WNW 22:33:12 10° NW visible
29 Jun 6.3 22:16:53 10° WSW 22:18:47 13° WNW 22:20:43 10° NW visible
30 Jun 6.2 22:03:37 10° WSW 22:05:52 15° WNW 22:08:06 10° NW visible
01 Jul 6.2 21:50:26 10° WSW 21:52:56 17° WNW 21:55:27 10° NNW visible
02 Jul 6.1 21:37:17 10° WSW 21:40:01 19° WNW 21:42:45 10° NNW visible
03 Jul 6.0 21:24:10 10° SW 21:27:05 21° WNW 21:30:01 10° NNW visible
04 Jul 5.9 21:11:05 10° SW 21:14:10 24° WNW 21:17:15 10° NNW visible
